Terminal Aerodrome Forecast
Issued by NWS Sterling, VA

Current Version | Previous Version | Graphics & Text | Print | Product List | Glossary On
Versions: 1 2 3 4 5 6 7 8 9 10 11 12 13 14 15 16 17 18 19 20 21 22 23
000
FTUS41 KLWX 181700
TAFIAD
TAF
KIAD 181729Z 1818/1924 13006KT P6SM SCT030 BKN250
     FM190300 00000KT P6SM BKN130
     FM191200 34006KT P6SM BKN250
     FM191500 02010KT P6SM SCT250=

USA.gov is the U.S. government's official web portal to all federal, state and local government web resources and services.